Printer-friendly version

IAU Minor Planet Center

Minor Planet Center

MPEC 2005-G05 : 2005 FL4

The following Minor Planet Electronic Circular may be linked-to from your own Web pages, but must not otherwise be redistributed electronically.


Read MPEC 2005-G04 Read MPEC 2005-G06


M.P.E.C. 2005-G05                                Issued 2005 Apr. 1, 12:05 UT

     The Minor Planet Electronic Circulars contain information on unusual
         minor planets and routine data on comets.  They are published
   on behalf of Commission 20 of the International Astronomical Union by the
          Minor Planet Center, Smithsonian Astrophysical Observatory,
                          Cambridge, MA 02138, U.S.A.

                  Supported in part by the Brinson Foundation
             Prepared using the Tamkin Foundation Computer Network

                              MPC@CFA.HARVARD.EDU
          URL http://cfa-www.harvard.edu/iau/mpc.html  ISSN 1523-6714

                                   2005 FL4

Observations:
     K05F04L* C2005 03 30.13630 05 41 13.92 +76 47 00.0          18.0   EG005704
     K05F04L  C2005 03 30.15715 05 41 10.29 +76 46 43.5          18.7   EG005704
     K05F04L  C2005 03 30.16805 05 41 08.20 +76 46 34.4          18.4   EG005704
     K05F04L  C2005 03 30.17855 05 41 06.25 +76 46 26.7          18.6   EG005704
     K05F04L  C2005 03 31.11464 05 38 34.13 +76 34 40.9          18.5   EG005704
     K05F04L  C2005 03 31.12492 05 38 32.61 +76 34 32.9          18.4   EG005704
     K05F04L  C2005 03 31.13528 05 38 30.65 +76 34 23.4          18.8   EG005704
     K05F04L  C2005 03 31.14561 05 38 28.94 +76 34 15.4          18.6   EG005704
     K05F04L  C2005 03 31.15106 05 38 28.03 +76 34 11.8          18.8 R EG005651
     K05F04L  C2005 03 31.15317 05 38 27.69 +76 34 09.6          18.6 R EG005651
     K05F04L  C2005 03 31.15531 05 38 27.27 +76 34 08.4          18.4 R EG005651
     K05F04L  C2005 03 31.15585 05 38 27.15 +76 34 07.0          19.0   EG005704
     K05F04L  C2005 03 31.77817 05 36 51.30 +76 26 06.6          18.1 R EG005118
     K05F04L  C2005 03 31.77929 05 36 51.06 +76 26 06.6          17.6 R EG005118
     K05F04L  C2005 03 31.78041 05 36 50.68 +76 26 05.0          18.4 R EG005118
     K05F04L  C2005 03 31.78374 05 36 50.31 +76 26 02.7          18.0 R EG005118

Observer details:
118 Modra.  Observers S. Gajdos, J. Vilagi.  0.6-m f/5.5 reflector + CCD.
651 Grasslands Observatory, Tucson.  Observer J. E. McGaha.  0.62-m f/5.1
    Newtonian reflector + CCD.
704 Lincoln Laboratory ETS, New Mexico.  Observers M. Blythe, F. Shelly,
    M. Bezpalko, R. Huber, L. Manguso, D. Torres, R. Kracke, M. McCleary,
    H. Stange, A. Milner.  Measurers J. Stuart, R. Sayer, J. Evans, J. Kommers.
    1.0-m f/2.15 reflector + CCD.

Orbital elements:
2005 FL4
Epoch 2005 Mar. 31.0 TT = JDT 2453460.5                 MPC
M 335.70069              (2000.0)            P               Q
n   0.41932679     Peri.  180.29351     -0.29898440     +0.85386965
a   1.7678048      Node    72.34080     -0.87460098     -0.06662137
e   0.5831076      Incl.   26.55872     -0.38168240     -0.51620559
P   2.35           H   17.0           G   0.15
From 16 observations 2005 Mar. 30-31.

Ephemeris:
2005 FL4                 a,e,i = 1.77, 0.58, 27                  q = 0.7370
Date    TT    R. A. (2000) Decl.     Delta      r     Elong.  Phase     V
2005 03 31    05 38.91   +76 36.0    0.612    1.103    82.6    63.9    18.4
2005 04 10    05 18.07   +74 18.2    0.561    1.012    74.8    72.9    18.3
2005 04 20    05 00.45   +71 21.7    0.494    0.925    66.4    84.3    18.3
2005 04 30    04 36.02   +66 31.9    0.415    0.847    55.9   100.2    18.4
2005 05 10    04 02.95   +56 43.2    0.335    0.786    40.5   123.4    19.2

Timothy B. Spahr             (C) Copyright 2005 MPC           M.P.E.C. 2005-G05

Read MPEC 2005-G04 Read MPEC 2005-G06


Our Web policy. Index to the CBAT/MPC/ICQ pages.


Valid HTML 4.01!